Springfield, IL

8:20 AM CST on December 11, 2019 (GMT -0600)
Capital

Weather History for KSPI - October, 2019

Change the Weather History Date:

Tuesday, October 22, 2019

  Actual Average Record
Temperature  
Mean Temperature 50 °F 53 °F  
Max Temperature 60 °F 64 °F 85 °F (1963)
Min Temperature 40 °F 42 °F 23 °F (1976)
Degree Days  
Heating Degree Days 15 12  
Month to date heating degree days 203 205  
Since 1 July heating degree days 204 286  
Cooling Degree Days 0 0  
Month to date cooling degree days 32 19  
Year to date cooling degree days 1309 1118  
Growing Degree Days 1 (Base 50)    
Moisture  
Dew Point 35 °F    
Average Humidity 53    
Maximum Humidity 66    
Minimum Humidity 40    
Precipitation  
Precipitation 0.00 in 0.11 in 1.85 in (1889)
Month to date precipitation 1.04 2.22  
Year to date precipitation 41.59 30.77  
Snow  
Snow 0.00 in 0.00 in T in (1937)
Month to date snowfall 0.0 0.0  
Since 1 July snowfall 0.0 0.0  
Since 1 September snowfall 0.0 0.0  
Snow Depth 0.00 in    
Sea Level Pressure  
Sea Level Pressure 29.81 in    
Wind  
Wind Speed 15 mph (WSW)    
Max Wind Speed 30 mph    
Max Gust Speed 40 mph    
Visibility 10 miles    
Events      
T = Trace of Precipitation, MM = Missing Value Source: NWS Daily Summary

Daily Weather History Graph

Daily Weather History Graph

Search for Another Location

Airport or City:

Astronomy

Oct. 22, 2019 Rise Set
Actual Time 7:16 AM CDT 6:09 PM CDT
Civil Twilight 6:48 AM CDT 6:37 PM CDT
Nautical Twilight 6:17 AM CDT 7:08 PM CDT
Astronomical Twilight 5:45 AM CDT 7:39 PM CDT
Moon 12:26 AM CDT (10/22) 3:18 PM CDT (10/22)
Length of Visible Light 11h 48m
Length of Day
10h 53m
Last Quarter, 37% of the Moon is Illuminated
Oct 22
Last Quarter
Oct 27
New
Nov 4
First Quarter
Nov 12
Full
Nov 19
Last Quarter

Hourly Weather History & Observations

Time (CDT) Temp. Windchill Dew Point Humidity Pressure Visibility Wind Dir Wind Speed Gust Speed Precip Events Conditions
12:52 AM 51.1 °F - 39.0 °F 63% 29.67 in 10.0 mi SW 11.5 mph 20.7 mph N/A   Clear
1:52 AM 50.0 °F - 39.0 °F 66% 29.67 in 10.0 mi SW 13.8 mph 23.0 mph N/A   Clear
2:52 AM 50.0 °F - 39.0 °F 66% 29.68 in 10.0 mi SW 11.5 mph 25.3 mph N/A   Mostly Cloudy
3:52 AM 50.0 °F - 39.0 °F 66% 29.67 in 10.0 mi SW 12.7 mph 23.0 mph N/A   Mostly Cloudy
4:52 AM 51.1 °F - 39.0 °F 63% 29.69 in 10.0 mi WSW 12.7 mph 26.5 mph N/A   Overcast
5:52 AM 50.0 °F - 37.9 °F 63% 29.70 in 10.0 mi WSW 19.6 mph 31.1 mph N/A   Overcast
6:52 AM 50.0 °F - 37.9 °F 63% 29.71 in 10.0 mi WSW 16.1 mph 29.9 mph N/A   Mostly Cloudy
7:52 AM 50.0 °F - 37.9 °F 63% 29.73 in 10.0 mi WSW 13.8 mph 27.6 mph N/A   Overcast
9:52 AM 50.0 °F - 37.9 °F 63% 29.78 in 10.0 mi WSW 21.9 mph 32.2 mph N/A   Overcast
10:52 AM 51.1 °F - 37.0 °F 59% 29.80 in 10.0 mi WSW 20.7 mph 32.2 mph N/A   Overcast
11:52 AM 53.1 °F - 37.0 °F 55% 29.83 in 10.0 mi West 19.6 mph 31.1 mph N/A   Overcast
12:52 PM 55.9 °F - 37.0 °F 49% 29.81 in 10.0 mi West 21.9 mph 34.5 mph N/A   Partly Cloudy
1:52 PM 57.9 °F - 37.0 °F 46% 29.80 in 10.0 mi WSW 19.6 mph 34.5 mph N/A   Clear
2:52 PM 57.9 °F - 36.0 °F 44% 29.80 in 10.0 mi WSW 24.2 mph 35.7 mph N/A   Scattered Clouds
3:52 PM 59.0 °F - 35.1 °F 41% 29.83 in 10.0 mi West 25.3 mph 39.1 mph N/A   Mostly Cloudy
4:52 PM 55.9 °F - 34.0 °F 44% 29.85 in 10.0 mi West 20.7 mph 33.4 mph N/A   Scattered Clouds
5:52 PM 54.0 °F - 30.9 °F 41% 29.87 in 10.0 mi WSW 17.3 mph 28.8 mph N/A   Clear
6:52 PM 50.0 °F - 30.0 °F 46% 29.91 in 10.0 mi WSW 11.5 mph - N/A   Clear
7:52 PM 46.9 °F - 30.9 °F 54% 29.93 in 10.0 mi WSW 9.2 mph - N/A   Clear
8:52 PM 44.1 °F 39.5 °F 30.9 °F 60% 29.95 in 10.0 mi WSW 8.1 mph - N/A   Clear
9:52 PM 43.0 °F 38.2 °F 30.9 °F 62% 29.96 in 10.0 mi WSW 8.1 mph - N/A   Clear
10:52 PM 43.0 °F 38.2 °F 30.0 °F 60% 29.97 in 10.0 mi WSW 8.1 mph - N/A   Clear
11:52 PM 42.1 °F 37.7 °F 30.0 °F 62% 29.96 in 10.0 mi SW 6.9 mph - N/A   Clear